DELTA 1 DEB, 10845

Orbit data source: Space-Track

DELTA 1 DEB, 10845 is space debris in SSO originally from a launch on Thu, 29 Jul 1976 UTC launched from the Air Force Western Test Range (AFWTR). Debris objects in space refer to the collection of defunct objects orbiting the Earth. Examples of debris include non-operational satellites, rocket bodies, and fragments generated from explosions, collisions, or faulty payload assembly.

Loading next visibility...
Identifier
10845, 1976-077CR
Orbit
SSO
Country
Flag of USUS
Related business
Manufacturer
Unknown
Mission
Spacecraft
Bus & Motor
Unknown
Mass
Unknown
Launch date (UTC)
1976-07-29 (50 years ago)
Launch vehicle
Unknown
Launch site
Air Force Western Test Range (AFWTR)
Object type
Payload
Rocket body
Debris
Shape & HBR
Unknown shape, 0.1 m
Radar Cross Section
Small (<0.1 m²)

Expand to show TLE details & history
Last TLE update: 13 hours ago

TLE from 13 hours ago
0 DELTA 1 DEB
1 10845U 76077CR  26118.79205516  .00000041  00000-0  88671-3 0  9996
2 10845 102.3376 221.9862 0173897 295.4468 218.2872 12.10160509197489
Epoch: 2026-04-28T19:00Z
TLE epoch observation values (Epoch: 2026-04-28T19:00:33.565Z)
Latitude
26.82885°
Longitude
-93.59495°
Altitude
1,748.91 km
Speed
6.958 km/s
True Right ascension
03h 13m 13s
True Declination
26° 42' 27"
Sunlit
Object was in daylight at epoch
Visualization orbit readout
Latitude
Unknown
Longitude
Unknown
Altitude
Unknown
Speed
Unknown
Apparent Right ascension
Unknown
Apparent Declination
Unknown
Sunlit
N/A
Visualization observer readout
Local Sidereal Time
15:31:26
Azimuth
Unknown
Elevation
Unknown
Doppler factor
Unknown
Orbital elements
Apogee altitude
1,772.638 km
Perigee altitude
1,494.004 km
Semi-major axis
8,011.458 km
Eccentricity
0.01739
Inclination
102.3376°
RAAN
221.9862°
Arg. of periapsis
295.4468°
True anomaly
217.07332°
Mean anomaly
218.2872°
Eccentric anomaly
217.6782°
Mean motion
3.02675 °/min
Orbital period
118.94 mins
BSTAR
0.00088671
Loading maneuver chart data...
Computing Atmospheric mass density...
Loading historical data...
Loading historical data...
Loading historical data...
Loading historical data...
Loading historical data...
Loading historical data...
Loading historical data...

Documentation

Showing up to 5 results
|